Theta_e
321 320 317 314 315 314 313 310 308 302 304 300 299 300 302 303 303 304 304 304 305 306 306 306 307 307 308 309 309 308 308 308 308 309 311 311 310 311
316 314 312 311 310 309 308 307 306 306 302 298 297 298 299 300 303 304 304 303 303 303 304 304 305 306 306 306 306 306 306 306 307 307 308 308 309 309
308 308 305 306 303 303 303 303 302 303 301 294 296 297 298 300 301 303 302 302 303 301 301 302 303 303 303 303 303 304 304 305 305 306 306 307 307 308
307 306 303 303 300 300 300 298 297 297 298 293 295 297 298 300 300 301 300 300 300 300 300 301 301 301 302 302 302 303 302 302 303 304 305 305 306 306
306 305 302 300 298 298 297 297 297 299 299 296 295 298 300 300 299 299 298 298 298 300 301 300 300 301 301 302 301 301 301 301 302 303 303 304 305 306
302 301 299 298 297 296 296 297 298 297 298 297 296 297 298 299 297 295 295 298 298 300 300 301 301 302 301 301 301 300 299 300 301 301 302 302 303 304
297 298 299 300 301 300 298 299 299 298 298 297 296 295 295 295 294 296 295 296 297 299 298 298 298 299 299 299 299 299 299 300 300 301 300 301 301 303
298 300 301 303 303 303 303 302 301 299 297 296 295 294 294 295 296 294 294 294 292 300 295 294 298 296 298 298 298 298 298 299 300 299 299 299 299 301
301 301 300 301 303 301 302 301 299 298 298 296 295 295 294 294 294 292 293 294 293 295 295 292 296 294 296 296 298 297 298 298 298 298 298 298 298 299
300 300 300 299 299 299 300 298 296 297 298 297 296 295 294 295 294 293 293 294 295 296 295 290 294 292 294 295 297 296 296 296 296 297 297 297 297 297
297 297 297 296 296 296 296 296 295 296 298 297 296 295 294 294 294 293 292 291 291 292 293 290 291 290 291 293 296 296 296 296 295 296 296 296 296 296
295 295 295 297 296 297 297 296 294 294 294 293 293 293 294 294 293 293 292 290 289 289 292 288 288 288 285 292 291 293 293 295 296 296 295 295 295 294
294 294 296 295 297 297 296 296 295 295 293 293 291 292 293 293 293 293 293 291 289 288 292 291 288 287 286 286 289 290 292 291 292 293 295 294 293 293
294 295 295 296 296 295 295 296 295 294 292 290 290 290 290 291 292 292 293 292 292 291 292 291 289 288 286 285 285 288 289 290 292 291 291 293 294 294
295 295 294 293 292 292 292 294 293 292 290 289 288 289 290 291 291 291 292 292 292 293 293 292 290 289 288 286 285 287 287 289 290 291 290 290 290 290
294 294 292 292 291 291 291 293 292 291 290 289 289 290 292 291 290 291 290 291 290 289 292 293 291 290 288 288 288 286 288 286 290 291 291 290 291 291
294 292 291 290 289 289 290 290 291 290 290 291 289 289 290 290 290 290 290 289 288 287 288 290 291 291 290 289 286 288 288 289 290 290 289 288 290 291
292 290 289 289 288 288 288 288 289 290 290 290 290 290 289 289 289 289 289 288 286 286 286 289 289 289 289 290 293 289 290 289 290 290 290 287 287 290
290 290 289 288 288 288 289 289 288 290 290 290 289 289 289 289 289 289 288 288 287 286 287 289 289 287 284 283 289 293 287 288 289 288 289 289 288 289
291 290 289 289 288 288 289 289 289 290 290 290 289 289 289 288 288 288 287 287 287 287 287 288 288 287 286 285 285 288 292 289 288 288 289 291 292 294
291 290 290 289 289 290 289 289 289 288 289 289 289 288 289 288 287 287 287 288 287 287 285 286 288 292 291 290 286 286 290 292 291 289 289 289 288 287
291 290 290 290 290 290 289 289 288 288 288 288 288 288 288 288 287 287 287 286 286 287 287 288 289 289 288 286 284 285 287 290 293 294 295 293 289 285
290 290 290 290 290 289 289 288 288 287 287 287 287 287 288 287 288 288 287 286 286 286 286 286 287 288 286 286 286 286 287 288 289 289 291 295 295 295
Wind_Speed
4 3 4 5 5 5 5 5 3 2 2 3 1 1 1 3 4 5 6 4 5 7 7 8 9 11 11 12 14 14 15 15 16 17 17 17 17 18
4 7 7 5 5 5 4 5 3 2 3 1 1 1 2 2 1 1 4 3 3 4 7 9 10 11 12 12 13 13 14 15 16 17 18 19 20 20
6 8 7 5 4 4 4 3 1 1 2 1 1 2 3 2 2 2 2 1 1 0 4 8 11 11 11 12 12 12 12 13 15 15 16 17 18 19
5 6 5 4 5 4 3 4 3 1 3 3 2 2 2 1 2 4 3 4 3 7 6 9 10 8 8 9 11 11 12 12 14 14 15 16 17 17
4 5 5 5 5 4 4 3 3 2 3 3 2 2 1 0 2 3 4 3 3 5 7 5 3 6 9 11 11 11 10 13 13 14 15 16 17 18
5 6 7 6 6 6 4 4 3 3 3 3 2 2 1 2 3 3 3 2 3 5 3 6 7 11 10 9 10 8 7 11 14 15 15 16 17 18
6 5 5 7 9 7 4 4 4 2 2 2 2 1 2 2 1 1 4 4 6 1 2 4 3 3 4 6 7 10 12 12 12 11 13 16 15 19
6 7 7 9 8 8 7 5 4 1 1 1 1 2 3 2 3 4 4 5 4 3 5 6 2 3 2 3 4 8 10 11 7 11 15 16 17 18
6 5 5 4 7 6 7 7 6 6 6 5 3 3 4 4 2 5 6 6 6 5 3 5 2 4 3 6 10 5 7 10 12 14 16 17 18 19
5 4 4 4 3 2 5 4 2 4 3 2 5 4 3 4 4 5 7 8 7 4 3 4 4 5 5 5 1 2 9 12 11 14 16 17 18 18
4 3 1 3 5 1 4 4 4 5 8 6 6 3 3 4 5 4 6 3 5 2 5 4 4 6 5 4 3 15 13 13 12 14 16 15 15 17
3 4 3 4 2 3 6 3 2 4 3 4 3 3 5 5 3 6 4 4 3 4 4 5 5 6 5 3 8 7 8 11 15 17 14 12 12 6
3 3 5 2 2 3 5 1 2 5 3 0 3 2 2 2 1 1 2 3 3 2 4 2 4 5 4 6 6 8 7 10 8 9 16 9 12 12
2 2 5 4 5 6 4 2 5 4 1 2 2 2 3 2 3 3 3 4 4 5 5 4 3 3 4 6 6 7 9 8 8 8 6 10 15 12
2 7 5 3 2 2 1 1 3 0 1 1 2 1 1 2 4 3 4 5 5 5 4 3 3 4 4 5 7 8 10 7 7 4 6 6 7 6
5 4 1 1 2 3 3 2 1 1 2 3 2 2 2 3 3 3 3 4 4 4 6 5 5 5 6 7 7 8 8 5 7 7 6 6 5 5
3 1 2 2 1 0 0 1 0 2 3 2 2 3 4 3 4 2 3 4 4 5 5 5 5 6 7 10 9 8 8 6 7 6 6 7 7 6
3 2 3 3 3 1 1 2 2 3 3 3 3 3 4 4 4 3 4 3 4 5 6 6 6 6 6 8 13 7 6 6 7 7 9 7 7 7
3 1 3 3 3 2 2 2 3 4 4 3 4 4 5 4 5 5 4 4 5 5 6 6 6 6 7 8 5 2 6 7 7 7 8 7 7 7
2 1 3 2 2 2 2 2 3 3 3 4 4 4 3 4 5 5 4 5 5 6 6 6 5 6 6 7 8 9 11 8 6 7 8 7 7 15
5 3 1 2 2 2 2 2 3 3 3 3 3 3 4 4 4 5 5 9 10 5 6 6 6 15 6 6 7 8 6 9 12 8 8 7 6 6
2 2 2 2 2 1 2 2 2 3 4 3 4 4 4 4 5 5 5 5 6 6 7 6 7 6 5 6 9 11 8 8 8 13 16 14 5 5
3 3 2 2 2 2 3 2 3 2 3 4 4 4 4 4 4 4 5 6 7 6 7 7 6 6 7 7 11 8 12 10 7 8 6 10 13 16
Wind_Direction
199 146 89 59 59 55 66 77 62 327 252 115 163 70 94 60 17 67 64 59 48 22 5 345 331 323 319 317 318 320 326 323 322 323 324 322 323 321
51 89 89 83 73 63 55 55 55 252 255 80 54 104 77 145 84 142 102 272 129 48 352 333 325 318 314 315 316 320 318 319 322 321 323 324 322 318
83 106 92 83 69 51 52 67 170 216 199 115 102 256 213 239 113 270 205 322 297 269 304 314 310 308 309 309 312 314 325 324 321 321 320 321 321 317
125 107 104 98 102 126 126 141 144 174 151 137 170 187 196 280 265 296 347 315 342 301 318 302 310 311 315 328 324 321 320 324 325 324 321 317 315 313
110 117 129 128 130 133 124 121 110 89 89 127 138 179 167 46 338 304 283 271 278 279 276 302 316 297 303 309 308 312 318 329 322 318 325 319 318 313
90 110 130 132 140 143 134 129 119 87 68 90 99 146 214 149 249 277 315 310 301 284 323 263 272 271 282 303 301 303 335 325 322 321 321 323 320 312
89 93 98 127 134 136 129 133 131 136 144 162 164 192 242 230 308 344 292 322 280 86 270 292 290 307 311 327 29 352 344 323 314 340 341 337 322 333
118 114 114 116 114 116 114 104 65 63 179 293 354 277 266 250 47 339 329 292 313 40 1 310 306 287 327 268 335 332 335 326 342 332 334 331 323 327
121 115 117 111 140 127 117 107 87 54 25 347 304 354 2 45 345 296 310 314 308 323 309 291 7 324 344 343 350 17 349 339 325 321 325 326 325 322
116 126 137 166 65 316 178 196 184 158 74 21 26 28 339 341 293 289 308 293 278 241 22 284 3 332 340 313 220 79 339 331 319 314 320 319 322 318
113 86 185 209 118 284 242 229 201 133 94 71 81 58 354 334 316 307 268 303 292 343 53 331 347 334 325 283 58 355 334 328 321 315 315 324 322 320
139 128 30 26 134 243 250 202 260 135 170 166 175 212 223 180 245 252 322 307 360 281 71 352 346 4 323 305 353 328 313 320 325 324 321 329 340 331
158 177 119 49 18 96 6 280 33 102 106 293 293 272 247 237 235 293 343 328 319 291 298 16 314 326 311 309 316 314 335 335 325 322 319 346 326 307
151 107 88 90 67 52 3 77 117 112 207 287 258 265 281 322 357 325 343 313 298 301 302 310 284 295 287 294 299 317 318 315 316 315 325 338 314 318
110 77 114 85 37 313 327 234 141 213 46 306 265 271 301 308 296 287 292 282 282 276 279 262 251 278 270 279 288 301 314 307 293 298 307 306 307 316
134 155 105 360 354 331 289 178 173 57 282 273 259 256 261 277 279 282 293 297 297 306 311 275 270 272 277 272 277 290 288 288 297 289 299 294 287 285
121 171 231 249 302 286 63 125 242 239 256 251 273 291 286 281 278 323 314 315 315 311 303 294 266 254 259 268 278 276 285 288 284 299 302 305 311 305
212 213 263 274 291 294 227 222 232 263 277 272 267 269 279 294 296 286 277 284 297 299 299 300 315 294 287 284 271 270 278 298 308 323 316 294 286 282
257 272 267 282 285 258 250 236 243 247 250 245 262 270 270 276 305 304 294 298 293 290 289 298 298 300 300 293 304 44 297 298 301 290 281 286 283 291
275 250 274 261 256 268 262 270 277 283 257 256 265 288 322 307 283 289 310 300 294 294 294 296 292 297 296 305 301 297 264 274 276 286 287 288 286 290
211 219 253 257 228 180 199 204 256 269 274 296 282 272 266 272 295 299 289 293 294 290 302 290 294 300 297 295 289 295 290 261 246 253 283 285 288 298
220 210 209 244 240 207 227 224 243 267 280 294 293 294 294 282 284 292 300 322 312 293 290 302 306 303 305 293 290 295 298 299 282 252 250 246 268 287
199 218 191 218 233 235 239 225 241 275 299 281 275 280 288 288 292 308 311 288 290 299 298 298 299 292 282 282 290 296 304 309 309 305 287 250 247 253